Location: Ellingshausen
(50.5460°N, 10.4723°E)
Time: 21:15:52
(UTC+00:00)

Cosmos 1869 Rocket - Pass Details

Date: 18 January 2026
Orbit: 597 x 626 km, 82.5° (Epoch: 15 February)

Event Time Altitude Azimuth Distance (km) Brightness Sun altitude
Rises 06:25:16 0° 180° (S) 2,900 7.3 -7.2°
Reaches altitude 10° 06:27:30 10° 178° (S) 1,998 6.5 -6.8°
Maximum altitude 06:31:53 66° 97° (E) 689 4.1 -6.2°
Drops below altitude 10° 06:36:18 10° 15° (NNE) 2,010 6.1 -5.6°
Sets 06:38:33 0° 13° (NNE) 2,919 6.9 -5.3°
